When you browse on this site, cookies collect data to enhance your experience and personalize the content and advertising you see.
Visit our Privacy Policy to learn more. By continuing to use the site, you agree to this use of cookies and data.
  • In Lithuania
  • List of Countries
  • For 7 days
  • Water Temperature
  • Weather Map
  • Weather Widgets
  • user-avatar
    Login

    Hourly Weather Myitkyina

    Today, 31 March, Tuesday

    Time Temperature Precipitation Wind Pressure Humidity
    00:00 +20°C° 0 mm 0 mps 740 mmHg 42%
    01:00 +20°C° 0 mm 0 mps 739 mmHg 45%
    02:00 +19°C° 0 mm 0 mps 739 mmHg 47%
    03:00 +18°C° 0 mm 0 mps 739 mmHg 49%
    04:00 +18°C° 0 mm 0 mps 739 mmHg 50%
    05:00 +18°C° 0 mm 0 mps 739 mmHg 51%
    06:00 +19°C° 0 mm 0 mps 740 mmHg 50%
    07:00 +23°C° 0 mm 0 mps 740 mmHg 41%
    08:00 +28°C° 0 mm 0 mps 741 mmHg 32%
    09:00 +32°C° 0 mm 0 mps 741 mmHg 23%
    10:00 +34°C° 0 mm 0 mps 741 mmHg 20%
    11:00 +37°C° 0 mm 0 mps 740 mmHg 17%
    12:00 +39°C° 0 mm 0 mps 739 mmHg 14%
    13:00 +42°C° 0 mm 1 mps 739 mmHg 13%
    14:00 +41°C° 0 mm 1 mps 738 mmHg 12%
    15:00 +41°C° 0 mm 1 mps 737 mmHg 12%
    16:00 +36°C° 0 mm 1 mps 737 mmHg 16%
    17:00 +33°C° 0 mm 1 mps 737 mmHg 19%
    18:00 +28°C° 0 mm 0 mps 737 mmHg 23%
    19:00 +26°C° 0 mm 0 mps 738 mmHg 25%
    20:00 +25°C° 0 mm 0 mps 738 mmHg 28%
    21:00 +23°C° 0 mm 0 mps 739 mmHg 30%
    22:00 +22°C° 0 mm 0 mps 739 mmHg 32%
    23:00 +22°C° 0 mm 0 mps 739 mmHg 33%

    Tomorrow, 1 April, Wednesday

    Time Temperature Precipitation Wind Pressure Humidity
    00:00 +21°C° 0 mm 0 mps 739 mmHg 35%
    01:00 +20°C° 0 mm 0 mps 738 mmHg 37%
    02:00 +19°C° 0 mm 0 mps 738 mmHg 38%
    03:00 +19°C° 0 mm 0 mps 738 mmHg 40%
    04:00 +18°C° 0 mm 0 mps 738 mmHg 42%
    05:00 +18°C° 0 mm 0 mps 739 mmHg 43%
    06:00 +18°C° 0 mm 0 mps 739 mmHg 44%
    07:00 +23°C° 0 mm 0 mps 739 mmHg 36%
    08:00 +27°C° 0 mm 0 mps 740 mmHg 28%
    09:00 +34°C° 0 mm 1 mps 740 mmHg 20%
    10:00 +36°C° 0 mm 1 mps 739 mmHg 17%
    11:00 +40°C° 0 mm 1 mps 739 mmHg 14%
    12:00 +43°C° 0 mm 1 mps 738 mmHg 11%
    13:00 +42°C° 0 mm 1 mps 737 mmHg 11%
    14:00 +42°C° 0 mm 2 mps 737 mmHg 10%
    15:00 +42°C° 0 mm 2 mps 736 mmHg 10%
    16:00 +39°C° 0 mm 1 mps 736 mmHg 13%
    17:00 +34°C° 0 mm 1 mps 736 mmHg 16%
    18:00 +29°C° 0 mm 0 mps 736 mmHg 19%
    19:00 +27°C° 0 mm 0 mps 737 mmHg 21%
    20:00 +25°C° 0 mm 0 mps 737 mmHg 24%
    21:00 +24°C° 0 mm 0 mps 738 mmHg 26%
    22:00 +23°C° 0 mm 0 mps 738 mmHg 28%
    23:00 +22°C° 0 mm 0 mps 738 mmHg 30%

    Day after tomorrow, 2 April, Thursday

    Time Temperature Precipitation Wind Pressure Humidity
    00:00 +21°C° 0 mm 0 mps 737 mmHg 32%
    01:00 +20°C° 0 mm 0 mps 737 mmHg 33%
    02:00 +19°C° 0 mm 0 mps 737 mmHg 35%
    03:00 +18°C° 0 mm 0 mps 737 mmHg 37%
    04:00 +18°C° 0 mm 0 mps 737 mmHg 38%
    05:00 +18°C° 0 mm 0 mps 738 mmHg 40%
    06:00 +18°C° 0 mm 0 mps 738 mmHg 42%
    07:00 +23°C° 0 mm 0 mps 739 mmHg 34%
    08:00 +27°C° 0 mm 0 mps 739 mmHg 27%
    09:00 +32°C° 0 mm 0 mps 740 mmHg 20%
    10:00 +34°C° 0 mm 0 mps 739 mmHg 17%
    11:00 +40°C° 0 mm 1 mps 739 mmHg 14%
    12:00 +42°C° 0 mm 1 mps 738 mmHg 11%
    13:00 +42°C° 0 mm 1 mps 737 mmHg 11%
    14:00 +42°C° 0 mm 1 mps 737 mmHg 11%
    15:00 +42°C° 0 mm 1 mps 736 mmHg 10%
    16:00 +39°C° 0 mm 2 mps 736 mmHg 13%
    17:00 +37°C° 0 mm 2 mps 737 mmHg 16%
    18:00 +34°C° 0 mm 2 mps 737 mmHg 18%
    19:00 +32°C° 0 mm 1 mps 737 mmHg 21%
    20:00 +30°C° 0 mm 1 mps 738 mmHg 23%
    21:00 +28°C° 0 mm 1 mps 739 mmHg 26%
    22:00 +27°C° 0 mm 1 mps 739 mmHg 32%
    23:00 +26°C° 0 mm 1 mps 739 mmHg 37%

    3 April, Friday

    Time Temperature Precipitation Wind Pressure Humidity
    00:00 +25°C° 0 mm 1 mps 739 mmHg 43%
    01:00 +24°C° 0 mm 1 mps 739 mmHg 44%
    02:00 +23°C° 0 mm 1 mps 739 mmHg 45%
    03:00 +23°C° 0 mm 1 mps 739 mmHg 47%
    04:00 +23°C° 0 mm 1 mps 740 mmHg 47%
    05:00 +23°C° 0 mm 1 mps 740 mmHg 48%
    06:00 +23°C° 0 mm 1 mps 740 mmHg 48%
    07:00 +26°C° 0 mm 1 mps 741 mmHg 41%
    08:00 +30°C° 0 mm 1 mps 741 mmHg 34%
    09:00 +33°C° 0 mm 1 mps 742 mmHg 26%
    10:00 +36°C° 0 mm 1 mps 741 mmHg 22%
    11:00 +40°C° 0 mm 1 mps 740 mmHg 19%
    12:00 +42°C° 0 mm 1 mps 740 mmHg 15%
    13:00 +42°C° 0 mm 1 mps 739 mmHg 15%
    14:00 +41°C° 0 mm 2 mps 738 mmHg 15%
    15:00 +41°C° 0 mm 2 mps 738 mmHg 15%
    16:00 +37°C° 0 mm 2 mps 738 mmHg 22%
    17:00 +33°C° 0 mm 1 mps 738 mmHg 28%
    18:00 +29°C° 0 mm 1 mps 738 mmHg 35%
    19:00 +27°C° 0 mm 1 mps 739 mmHg 41%
    20:00 +26°C° 0 mm 1 mps 740 mmHg 47%
    21:00 +24°C° 0 mm 1 mps 740 mmHg 53%
    22:00 +24°C° 0 mm 1 mps 740 mmHg 54%
    23:00 +23°C° 0 mm 1 mps 740 mmHg 55%

    4 April, Saturday

    Time Temperature Precipitation Wind Pressure Humidity
    00:00 +23°C° 0 mm 1 mps 740 mmHg 56%
    01:00 +22°C° 0 mm 1 mps 740 mmHg 59%
    02:00 +22°C° 0 mm 1 mps 740 mmHg 62%
    03:00 +21°C° 0 mm 1 mps 740 mmHg 65%
    04:00 +21°C° 0 mm 1 mps 740 mmHg 65%
    05:00 +21°C° 0 mm 1 mps 741 mmHg 65%
    06:00 +19°C° 0 mm 0 mps 741 mmHg 65%
    07:00 +25°C° 0 mm 1 mps 742 mmHg 55%
    08:00 +28°C° 0 mm 1 mps 742 mmHg 45%
    09:00 +31°C° 0 mm 2 mps 742 mmHg 35%
    10:00 +34°C° 0 mm 1 mps 742 mmHg 30%
    11:00 +37°C° 0 mm 1 mps 741 mmHg 24%
    12:00 +41°C° 0 mm 1 mps 740 mmHg 18%
    13:00 +41°C° 0 mm 1 mps 740 mmHg 17%
    14:00 +41°C° 0 mm 1 mps 739 mmHg 16%
    15:00 +41°C° 0 mm 1 mps 738 mmHg 14%
    16:00 +37°C° 0 mm 1 mps 738 mmHg 18%
    17:00 +34°C° 0 mm 1 mps 738 mmHg 22%
    18:00 +31°C° 0 mm 1 mps 738 mmHg 26%
    19:00 +30°C° 0 mm 1 mps 739 mmHg 29%
    20:00 +29°C° 0 mm 1 mps 740 mmHg 31%
    21:00 +28°C° 0 mm 1 mps 741 mmHg 33%
    22:00 +26°C° 0 mm 1 mps 741 mmHg 40%
    23:00 +25°C° 0 mm 1 mps 741 mmHg 46%

    5 April, Sunday

    Time Temperature Precipitation Wind Pressure Humidity
    00:00 +23°C° 0 mm 1 mps 741 mmHg 53%
    01:00 +22°C° 0 mm 1 mps 741 mmHg 57%
    02:00 +22°C° 0 mm 1 mps 741 mmHg 62%
    03:00 +21°C° 0 mm 1 mps 741 mmHg 66%
    04:00 +21°C° 0 mm 1 mps 741 mmHg 68%
    05:00 +21°C° 0 mm 1 mps 741 mmHg 69%
    06:00 +18°C° 0 mm 0 mps 742 mmHg 70%
    07:00 +24°C° 0 mm 1 mps 742 mmHg 58%
    08:00 +28°C° 0 mm 1 mps 742 mmHg 46%
    09:00 +31°C° 0 mm 1 mps 742 mmHg 34%
    10:00 +35°C° 0 mm 1 mps 742 mmHg 28%
    11:00 +39°C° 0 mm 1 mps 741 mmHg 22%
    12:00 +42°C° 0 mm 1 mps 740 mmHg 16%
    13:00 +42°C° 0 mm 1 mps 740 mmHg 15%
    14:00 +41°C° 0 mm 1 mps 739 mmHg 15%
    15:00 +41°C° 0 mm 1 mps 738 mmHg 14%
    16:00 +36°C° 0.1 mm 1 mps 738 mmHg 24%
    17:00 +32°C° 0.1 mm 1 mps 738 mmHg 34%
    18:00 +28°C° 0.1 mm 2 mps 738 mmHg 44%
    19:00 +25°C° 0.2 mm 1 mps 739 mmHg 57%
    20:00 +23°C° 0.2 mm 1 mps 740 mmHg 70%
    21:00 +20°C° 0.2 mm 1 mps 741 mmHg 83%
    22:00 +20°C° 0.1 mm 1 mps 741 mmHg 84%
    23:00 +20°C° 0.1 mm 1 mps 741 mmHg 85%
    Show more